Location: *
(32.3758°S, 63.1185°E)
Time: 22:10:41
(UTC+00:00)

Daily predictions for brighter satellites

Satellite Brightness Start Highest point End
(mag) Time Altitude Azimuth Time Altitude Azimuth Time Altitude Azimuth
COSMO-SKYMED 1 2.7 13:09:48 10° NNE 13:14:09 88° WNW 13:18:35 10° SSW
H-2A R/B 2.3 13:11:24 10° S 13:16:21 73° WSW 13:21:19 10° NNW
NOSS 0 Rocket 4.0 13:12:05 10° SSW 13:18:16 57° ESE 13:24:22 10° NE
CZ-2D R/B 3.8 13:15:18 10° SSE 13:18:51 37° E 13:22:19 10° NNE
Meteor 1-4 Rocket 2.3 13:15:38 10° N 13:18:56 89° WNW 13:22:17 10° S
USA 267 3.3 13:16:38 10° NE 13:23:12 88° SE 13:29:49 10° SW
Cosmos 1140 Rocket 4.2 13:19:29 10° SSW 13:24:37 59° WNW 13:29:43 10° N
Cosmos 1842 Rocket 4.1 13:22:49 10° SSE 13:26:56 37° E 13:31:01 10° NNE
Cosmos 1452 Rocket 4.0 13:24:04 10° NNE 13:28:54 39° E 13:33:49 10° SSE
H-2A R/B 2.3 13:28:50 10° W 13:31:04 36° N 13:36:29 10° ENE
Cosmos 1782 2.8 13:27:32 10° S 13:31:34 88° W 13:35:32 10° N
Cosmos 2315 Rocket 4.1 13:25:27 10° N 13:31:39 60° E 13:37:51 10° SSE
OAO 2 Rocket 3.5 13:27:19 10° WNW 13:32:12 64° NNE 13:36:39 12° E
Meteor 1-31 Rocket 2.9 13:28:45 10° SSE 13:32:28 51° E 13:36:08 10° N
Cosmos 1862 3.2 13:29:33 10° N 13:33:29 75° E 13:37:28 10° S
CZ-2C R/B 4.0 13:33:30 10° S 13:36:59 41° WSW 13:40:27 10° NW
SL-6 R/B(2) 4.4 13:20:28 10° NNW 13:37:55 82° ENE 13:43:09 10° SSE
deb Centaur AC-2 4.2 13:35:02 10° W 13:39:21 65° N 13:43:21 12° E
CZ-4B R/B 3.6 13:39:32 10° SSE 13:43:12 77° E 13:46:56 10° N
ATLAS 5 CENTAUR R/B 3.8 13:37:48 10° NNE 13:43:46 26° ENE 13:48:17 15° ESE
Lacrosse 4 Rocket 2.8 13:43:55 10° NNE 13:47:10 21° ENE 13:48:37 18° ESE
JB-3 4.4 13:44:52 10° NNE 13:48:42 54° ESE 13:52:40 10° S
SL-19 R/B 4.5 13:44:28 10° NNE 13:49:02 84° ESE 13:53:10 10° SSW
Cosmos 2237 Rocket 2.2 13:45:10 10° SSW 13:50:52 64° ESE 13:56:28 10° NNE
SMAP 3.1 13:47:11 10° SSE 13:51:52 61° E 13:56:28 10° N
ATLAS CENTAUR R/B 3.2 13:50:45 10° NE 13:51:50 12° ENE 13:51:50 12° ENE
Meteor 2-6 Rocket 4.4 13:47:30 10° S 13:53:01 48° ESE 13:58:20 10° NNE
ATLAS 3B R/B 4.1 13:53:15 10° SSE 13:56:28 14° SE 13:56:29 14° SE
Lacrosse 5 4.5 13:56:46 10° SW 13:57:22 10° SSW 13:57:58 10° SSW
DMSP B5D1-3 4.5 13:52:28 10° NNE 13:57:37 84° ESE 14:02:50 10° S
Cosmos 2151 3.9 13:55:02 10° NNW 13:59:05 48° W 14:03:11 10° S
Cosmos 2221 3.8 13:55:32 10° SSW 13:59:35 42° W 14:03:36 10° NNW
Cosmos 1515 4.0 13:57:40 10° S 14:01:11 39° E 14:04:40 10° NNE
SJ-11-01 4.3 13:59:07 10° S 14:03:51 81° WSW 14:08:32 10° NNW
Cosmos 2297 Rocket 4.0 14:00:40 10° WNW 14:05:34 30° WSW 14:10:32 10° S
USA 276 2.4 14:03:27 10° WSW 14:06:05 54° NW 14:07:53 18° NNE
Cosmos 1954 Rocket 4.1 14:00:58 10° SSW 14:06:14 80° WNW 14:11:29 10° N
CZ-4C R/B 3.9 14:05:15 10° SW 14:09:11 27° WNW 14:12:41 10° NNW
SL-16 R/B 3.0 14:05:22 10° S 14:10:12 27° ESE 14:10:47 27° ESE
ADEOS 4.1 14:07:43 22° SE 14:10:24 36° E 14:15:11 10° NNE
ATLAS 2AS CENTAUR R/B 3.4 14:05:49 10° NW 14:12:01 48° SW 14:18:28 10° SSE
Cosmos 1242 Rocket 2.4 14:08:50 10° N 14:12:09 54° E 14:12:59 41° SE
Cosmos 1602 4.1 14:09:06 10° NNE 14:12:40 39° E 14:12:58 39° E
Cosmos 1331 Rocket 3.9 14:08:59 10° N 14:14:09 77° ENE 14:18:25 15° SSE
ARGOS 4.3 14:10:40 10° S 14:15:48 44° WSW 14:20:52 10° NW
Cosmos 1709 Rocket 4.3 14:10:32 10° S 14:16:54 72° W 14:23:14 10° N
Cosmos 405 Rocket 2.8 14:14:28 10° S 14:18:26 77° W 14:22:21 10° N
Cosmos 2184 Rocket 4.4 14:14:38 10° SSE 14:20:25 37° E 14:26:12 10° NE
Cosmos 2219 3.9 14:18:38 10° NW 14:24:12 54° WSW 14:29:47 10° S
CBERS 1 LM4 rocket 4.4 14:20:18 11° SSE 14:25:08 89° E 14:30:12 10° NNW
Kakehashi 3.7 14:21:25 10° W 14:27:20 76° N 14:30:47 30° E
Cosmos 1980 4.5 14:23:08 10° SSW 14:28:39 53° WNW 14:34:09 10° N
Cosmos 1500 3.0 14:25:17 10° N 14:28:59 86° W 14:30:15 40° S
Cosmos 1850 Rocket 4.1 14:24:33 10° S 14:29:46 50° ESE 14:34:56 10° NNE
Cosmos 2227 Rocket 3.9 14:28:17 10° WNW 14:33:14 30° WSW 14:38:14 10° S
BREEZE-M DEB (TANK) 3.8 14:30:11 10° SW 14:34:45 61° SSE 14:36:33 40° E
Meteor 1-10 Rocket 4.1 14:37:31 10° S 14:43:22 88° E 14:49:01 10° N
SEDSat Delta rocket 2.9 14:40:02 10° W 14:44:30 70° N 14:44:34 69° N
GOES 2 Rocket 4.1 14:45:46 10° NW 14:49:12 32° N 14:49:12 32° N
Tiangong 0.8 14:48:47 10° SW 14:49:08 12° SW 14:49:08 12° SW
OAO 3 Copernicus 4.1 14:47:17 10° WNW 14:52:21 86° SSW 14:52:29 84° SSE
USA 81 3.9 14:49:19 10° N 14:54:36 89° ENE 14:56:05 50° S
USA 281 4.4 14:57:42 25° SSE 14:57:42 25° SSE 15:00:40 10° S
Cosmos 2263 Rocket 2.3 14:49:57 10° NNW 14:55:35 74° WSW 14:57:29 43° S
SeaSat 1 2.4 15:00:23 74° N 15:00:23 74° N 15:04:53 10° NNW
NOAA 6 4.4 15:00:06 33° S 15:02:17 61° WSW 15:07:20 10° NNW
OAO 2 Rocket 4.2 15:12:03 10° W 15:15:34 44° WSW 15:15:34 44° WSW
Lacrosse 4 Rocket 3.5 15:21:45 10° WNW 15:24:49 26° WSW 15:24:49 26° WSW
Nadezhda 1 Rocket 4.3 15:20:49 10° NNW 15:26:48 61° W 15:27:46 54° SW
ATLAS 5 CENTAUR R/B 3.2 15:20:28 10° NW 15:27:56 61° WSW 15:29:34 50° S
ATLAS CENTAUR R/B 4.1 15:26:49 10° WNW 15:27:29 14° WNW 15:27:29 14° WNW
FALCON 9 R/B 4.4 15:36:20 10° WNW 15:45:07 73° N 16:51:08 10° E
ATLAS 3B R/B 4.2 15:41:39 10° SSW 15:43:46 22° SSW 15:43:46 22° SSW
SL-16 R/B 3.8 15:49:09 10° SW 15:52:50 30° WSW 15:52:50 30° WSW
FALCON 9 R/B 4.1 16:14:05 10° W 16:22:55 39° W 16:22:55 39° W
Cosmos 2227 Rocket 4.3 23:35:51 19° NE 23:35:51 19° NE 23:37:28 10° NE
Lacrosse 4 Rocket 3.9 23:55:13 20° ENE 23:55:13 20° ENE 23:57:00 10° ENE
Cosmos 2263 Rocket 4.2 23:51:36 20° SE 23:53:24 23° ESE 23:57:44 10° ENE
ATLAS CENTAUR R/B 3.7 23:56:40 25° ENE 23:56:40 25° ENE 23:59:02 10° NE
